NIGCOMSAT 1R

Last updated on Sat Sep 05 2026 00:03:03 GMT+0000 (Coordinated Universal Time)

1 38014U 11077A 26247.10535738 .00000140 00000+0 00000+0 0 9998 2 38014 0.0182 183.1748 0002512 154.3926 86.1243 1.00269486 53740
UTC large
Height (km)
Speed (km/s)
/
Latitude / Longitude
Inclination (degrees)
Orbital Period (minutes)
Azimuth
Elevation
Range (km)
Doppler Factor

Next 0 passes for location: London (51.5072 / 0.1276)

No passes found over London.
NIGCOMSAT 1R